sat.trackr.live / text

‹ back to catalog

LUSAT (LO-19)

NORAD 20442 · 1990-005G

PAYLOAD ACTIVE UNKNOWN

§ Identity

Operator
Country
ARGN
Launch date
1990-01-22
Launch site
FRGUI
Launch vehicle
Mass (kg)
RCS (m²)
0.15

Purposes: comms

External: N2YO · Heavens-Above · Gunter

§ Orbital elements

Epoch: 2026-09-20T01:35:48.609312Z

Period
100.41 min
Inclination
98.8820°
Eccentricity
0.0010507
Mean motion
14.34144701 rev/d
Perigee alt
770.4 km
Apogee alt
785.4 km
Semi-major
7,156.0 km
B*
3.0961e-5
RAAN
287.4719°
Arg perigee
289.6266°
Mean anomaly
70.3784°
Rev number
91,599

§ Raw data

LUSAT (LO-19)1 20442U 90005G   26263.06653483  .00000040  00000+0  30961-4 0  99962 20442  98.8820 287.4719 0010507 289.6266  70.3784 14.34144701915990

JSON: /api/v1/satellites/20442 · /tle

For live sub-satellite position, see the globe view (requires WebGL).

§ Visibility from observer

Set your observer location to see the next 7 days of passes ≥ 10°. The values pass through the URL so the page stays shareable.

No JS? Fill the form by hand. The geolocation button needs JavaScript.

§ Radio — SatNOGS DB

ModeDescriptionDownlinkUplink
BPSK BPSK 1k2 Transceiver 437.150 MHz 145.840 MHz
Carrier 435.078 MHz
CW Mode U TLM 437.125 MHz

3 transmitters · refreshed weekly from db.satnogs.org